| time (UTC) | temp F | wind direction | speed MPH | gust MPH | rain 1hr in | rain 24hr in | rain mn in | humidity % | barometer mb |
| 20260503021606 | 39 | 210 | 5.0 | 0.0 | 0.00 | 0.00 | 0.00 | 67 | 989.0 |
| 20260503020135 | 40 | 216 | 5.0 | 0.0 | 0.00 | 0.00 | 0.00 | 67 | 989.0 |
| 20260503014606 | 40 | 230 | 5.0 | 0.0 | 0.00 | 0.00 | 0.00 | 56 | 988.8 |
| 20260503013124 | 41 | 234 | 6.0 | 0.0 | 0.00 | 0.00 | 0.00 | 56 | 988.8 |
| 20260503011606 | 41 | 231 | 5.0 | 0.0 | 0.00 | 0.00 | 0.00 | 56 | 988.8 |
| 20260503010135 | 42 | 238 | 5.0 | 0.0 | 0.00 | 0.00 | 0.00 | 56 | 988.8 |
| 20260503004605 | 43 | 247 | 5.0 | 0.0 | 0.00 | 0.00 | 0.00 | 40 | 989.5 |
| 20260503003119 | 44 | 243 | 5.0 | 0.0 | 0.00 | 0.00 | 0.00 | 40 | 989.7 |
| 20260503001606 | 45 | 250 | 5.0 | 0.0 | 0.00 | 0.00 | 0.00 | 40 | 989.7 |
| 20260503000141 | 46 | 265 | 5.0 | 0.0 | 0.00 | 0.00 | 0.00 | 40 | 989.7 |
| 20260502234607 | 47 | 280 | 6.0 | 0.0 | 0.00 | 0.00 | 0.00 | 35 | 989.6 |
| 20260502233119 | 47 | 284 | 7.0 | 0.0 | 0.00 | 0.00 | 0.00 | 35 | 989.7 |
| 20260502231607 | 48 | 287 | 7.0 | 0.0 | 0.00 | 0.00 | 0.00 | 35 | 989.7 |
| 20260502230133 | 48 | 288 | 8.0 | 0.0 | 0.00 | 0.00 | 0.00 | 35 | 989.7 |
| 20260502224606 | 48 | 288 | 9.0 | 0.0 | 0.00 | 0.00 | 0.00 | 33 | 990.0 |
| 20260502223125 | 48 | 285 | 10.0 | 0.0 | 0.00 | 0.00 | 0.00 | 33 | 990.8 |
| 20260502221607 | 48 | 284 | 11.0 | 0.0 | 0.00 | 0.00 | 0.00 | 33 | 990.8 |
| 20260502220134 | 48 | 282 | 11.0 | 0.0 | 0.00 | 0.00 | 0.00 | 33 | 990.8 |
| 20260502214607 | 48 | 283 | 12.0 | 0.0 | 0.00 | 0.00 | 0.00 | 34 | 990.9 |
| 20260502213125 | 48 | 281 | 11.0 | 0.0 | 0.00 | 0.00 | 0.00 | 37 | 990.6 |
| 20260502211607 | 48 | 278 | 11.0 | 0.0 | 0.00 | 0.00 | 0.00 | 37 | 990.6 |
| 20260502210136 | 48 | 276 | 11.0 | 0.0 | 0.00 | 0.00 | 0.00 | 37 | 990.6 |
| 20260502204606 | 48 | 274 | 11.0 | 0.0 | 0.00 | 0.00 | 0.00 | 38 | 991.1 |
| 20260502203125 | 48 | 271 | 10.0 | 0.0 | 0.00 | 0.00 | 0.00 | 36 | 991.4 |
| 20260502201607 | 48 | 272 | 11.0 | 0.0 | 0.00 | 0.00 | 0.00 | 36 | 991.4 |
| 20260502200133 | 48 | 272 | 11.0 | 0.0 | 0.00 | 0.00 | 0.00 | 36 | 991.4 |
| 20260502194607 | 48 | 274 | 11.0 | 0.0 | 0.00 | 0.00 | 0.00 | 29 | 991.6 |
| 20260502193120 | 48 | 275 | 12.0 | 0.0 | 0.00 | 0.00 | 0.00 | 29 | 991.6 |
| 20260502191607 | 49 | 278 | 13.0 | 0.0 | 0.00 | 0.00 | 0.00 | 29 | 991.7 |
| 20260502190134 | 49 | 281 | 12.0 | 0.0 | 0.00 | 0.00 | 0.00 | 29 | 991.7 |
| 20260502184607 | 48 | 283 | 12.0 | 0.0 | 0.00 | 0.00 | 0.00 | 38 | 991.7 |
| 20260502183126 | 48 | 292 | 12.0 | 0.0 | 0.00 | 0.00 | 0.00 | 38 | 991.7 |
| 20260502181606 | 48 | 290 | 12.0 | 0.0 | 0.00 | 0.00 | 0.00 | 38 | 991.7 |
| 20260502180140 | 47 | 287 | 11.0 | 0.0 | 0.00 | 0.00 | 0.00 | 38 | 991.7 |
| 20260502170130 | 46 | 278 | 10.0 | 0.0 | 0.00 | 0.00 | 0.00 | 42 | 992.1 |
| 20260502163126 | 46 | 280 | 10.0 | 0.0 | 0.00 | 0.00 | 0.00 | 40 | 991.0 |
| 20260502161606 | 45 | 281 | 9.0 | 0.0 | 0.00 | 0.00 | 0.00 | 40 | 991.0 |
| 20260502160137 | 45 | 285 | 8.0 | 0.0 | 0.00 | 0.00 | 0.00 | 40 | 991.0 |
| 20260502151607 | 43 | 300 | 7.0 | 0.0 | 0.00 | 0.00 | 0.00 | 52 | 991.1 |
| 20260502150140 | 42 | 299 | 7.0 | 0.0 | 0.00 | 0.00 | 0.00 | 52 | 991.1 |
| 20260502130135 | 36 | 336 | 4.0 | 0.0 | 0.00 | 0.00 | 0.00 | 74 | 991.7 |
| 20260502123124 | 35 | 327 | 4.0 | 0.0 | 0.00 | 0.00 | 0.00 | 79 | 991.8 |
| 20260502121607 | 34 | 326 | 4.0 | 0.0 | 0.00 | 0.00 | 0.00 | 79 | 991.8 |
| 20260502120149 | 33 | 317 | 4.0 | 0.0 | 0.00 | 0.00 | 0.00 | 79 | 991.8 |
| 20260502114607 | 32 | 306 | 3.0 | 0.0 | 0.00 | 0.00 | 0.00 | 84 | 991.7 |
| 20260502113128 | 32 | 284 | 1.0 | 0.0 | 0.00 | 0.00 | 0.00 | 86 | 991.7 |
| 20260502111606 | 31 | 270 | 1.0 | 0.0 | 0.00 | 0.00 | 0.00 | 86 | 991.4 |
| 20260502110135 | 31 | 281 | 1.0 | 0.0 | 0.00 | 0.00 | 0.00 | 86 | 991.4 |
| 20260502104606 | 31 | 270 | 0.0 | 0.0 | 0.00 | 0.00 | 0.00 | 86 | 991.2 |
| 20260502103125 | 31 | 338 | 1.0 | 0.0 | 0.00 | 0.00 | 0.00 | 86 | 991.5 |
| 20260502101606 | 31 | 329 | 1.0 | 0.0 | 0.00 | 0.00 | 0.00 | 86 | 991.5 |
| 20260502100136 | 31 | 310 | 1.0 | 0.0 | 0.00 | 0.00 | 0.00 | 86 | 991.5 |
| 20260502090135 | 31 | 291 | 3.0 | 0.0 | 0.00 | 0.00 | 0.00 | 85 | 991.0 |
| 20260502070137 | 31 | 315 | 3.0 | 0.0 | 0.00 | 0.00 | 0.00 | 82 | 990.2 |
| 20260502064606 | 31 | 313 | 3.0 | 0.0 | 0.00 | 0.00 | 0.00 | 76 | 991.4 |
| 20260502063126 | 31 | 297 | 3.0 | 0.0 | 0.00 | 0.00 | 0.00 | 77 | 991.3 |
| 20260502061606 | 32 | 286 | 4.0 | 0.0 | 0.00 | 0.00 | 0.00 | 77 | 991.3 |
| 20260502060152 | 32 | 288 | 4.0 | 0.0 | 0.00 | 0.00 | 0.00 | 77 | 991.3 |
| 20260502054606 | 32 | 288 | 4.0 | 0.0 | 0.00 | 0.00 | 0.00 | 74 | 990.6 |
| 20260502053125 | 32 | 288 | 4.0 | 0.0 | 0.00 | 0.00 | 0.00 | 77 | 991.0 |
| 20260502051605 | 32 | 291 | 4.0 | 0.0 | 0.00 | 0.00 | 0.00 | 77 | 991.0 |
| 20260502050137 | 32 | 295 | 4.0 | 0.0 | 0.00 | 0.00 | 0.00 | 77 | 991.0 |
| 20260502044607 | 33 | 300 | 4.0 | 0.0 | 0.00 | 0.00 | 0.00 | 73 | 990.5 |
| 20260502043124 | 33 | 317 | 4.0 | 0.0 | 0.00 | 0.00 | 0.00 | 77 | 990.7 |
| 20260502041606 | 33 | 319 | 4.0 | 0.0 | 0.00 | 0.00 | 0.00 | 77 | 990.6 |
| 20260502040137 | 33 | 317 | 4.0 | 0.0 | 0.00 | 0.00 | 0.00 | 77 | 990.6 |
| 20260502034605 | 34 | 319 | 4.0 | 0.0 | 0.00 | 0.00 | 0.00 | 67 | 990.2 |
| 20260502033126 | 34 | 313 | 4.0 | 0.0 | 0.00 | 0.00 | 0.00 | 74 | 989.6 |
| 20260502031605 | 34 | 317 | 5.0 | 0.0 | 0.00 | 0.00 | 0.00 | 74 | 989.6 |
| 20260502030136 | 34 | 320 | 5.0 | 0.0 | 0.00 | 0.00 | 0.00 | 74 | 989.6 |
| 20260502024604 | 35 | 320 | 5.0 | 0.0 | 0.00 | 0.00 | 0.00 | 65 | 989.2 |
| 20260502023123 | 35 | 326 | 5.0 | 0.0 | 0.00 | 0.00 | 0.00 | 70 | 990.2 |